RH
60 46 32 30 30 30 32 31 43 66 77 79 85 94 100 101 99 96 96 99 100 99 99 97 100 100 91 84 84 85 88 94 94 85 81 83 82 78 74 72 73 74 70 66 63 62 54 37 27 27 24 23 22 18 16 16 18 24 30 32 38 43 43 35 25 22 22 17 14 13 11 10 12 14 15 18 25 31 44 65 63 37 27 37 32 30 58
56 43 32 31 30 29 31 30 37 60 83 93 95 97 99 100 100 97 97 100 99 100 100 98 99 96 88 87 87 84 86 90 94 94 89 82 77 78 75 69 67 63 62 64 60 56 58 47 30 24 25 22 17 17 19 18 19 24 30 38 41 39 46 48 35 24 22 22 20 15 12 13 18 25 21 15 22 26 32 44 40 30 35 38 32 40 66
54 44 33 31 30 29 30 30 32 49 74 89 91 94 98 100 98 93 97 102 100 100 100 99 100 97 94 94 90 87 88 84 84 89 86 75 71 77 77 69 63 60 60 66 61 53 58 56 40 25 22 25 21 16 20 22 22 21 22 33 37 34 54 76 64 43 34 33 35 34 27 19 20 25 18 13 17 17 26 34 27 34 46 36 37 61 75
52 48 37 30 29 29 29 29 30 41 63 79 81 87 96 99 97 93 93 97 99 100 99 100 101 98 98 98 89 90 92 82 77 82 82 75 71 75 74 65 65 66 65 69 63 48 46 48 44 31 23 32 31 19 19 20 18 22 26 34 39 38 56 77 71 56 48 43 41 37 30 22 20 21 15 14 22 26 37 41 32 42 51 34 41 68 76
48 50 42 32 29 30 28 29 30 35 55 70 72 80 94 97 95 94 94 95 97 98 97 100 101 97 98 97 88 90 93 85 79 79 78 75 73 79 77 68 70 75 76 77 66 52 47 44 42 35 28 35 34 22 21 18 17 31 36 34 37 36 46 62 59 51 49 43 32 21 18 22 22 20 18 18 28 37 41 42 41 47 45 33 43 65 75
43 48 47 36 29 29 28 29 29 32 49 64 65 76 93 95 92 94 97 96 97 97 95 96 99 98 97 96 92 93 93 91 89 82 76 74 73 81 83 75 74 76 76 79 76 67 60 53 50 44 37 43 43 34 36 33 29 34 33 35 39 34 40 51 44 37 37 36 34 22 16 21 19 20 28 26 29 36 36 44 55 51 41 43 54 64 70
43 47 50 43 33 28 27 29 28 30 47 60 64 79 95 98 97 98 97 98 99 99 94 93 97 99 98 97 95 95 95 94 90 81 81 82 77 81 86 82 78 76 72 78 87 81 66 63 69 59 49 54 48 41 53 48 30 30 38 44 41 33 43 50 37 37 46 46 44 32 15 14 16 19 27 31 37 45 43 46 56 49 42 55 65 63 62
55 50 51 48 39 28 26 30 28 28 40 53 66 85 98 100 100 99 99 99 98 93 88 90 97 98 99 98 94 92 95 93 87 83 85 89 85 84 88 86 82 81 79 80 87 82 69 73 80 68 63 68 52 43 59 53 31 30 39 42 38 37 50 54 40 41 55 57 53 42 25 16 16 16 19 27 38 43 37 34 40 40 38 52 66 61 53
71 62 54 53 49 35 25 27 30 29 34 51 75 93 99 99 100 100 101 99 94 89 85 89 98 99 100 100 94 92 93 88 88 88 81 79 87 91 93 94 90 87 85 81 80 77 73 76 76 66 65 67 52 40 45 48 42 36 35 37 44 50 54 58 58 50 46 53 59 52 38 23 16 18 19 25 32 32 29 30 34 38 43 57 68 59 51
81 76 66 59 57 47 31 24 29 32 34 54 84 98 97 99 100 99 101 99 91 88 87 89 94 95 94 92 91 92 91 86 90 93 80 72 80 86 88 93 96 94 89 80 69 62 61 62 57 56 58 55 47 36 28 35 40 38 40 43 48 57 50 49 71 66 42 53 69 54 36 25 27 40 41 34 35 34 29 28 33 44 57 65 61 51 57
86 87 81 70 63 58 44 30 28 32 36 58 89 101 99 101 101 98 101 100 90 87 91 91 90 90 86 83 85 87 86 86 89 93 90 81 74 75 81 88 97 99 85 68 56 51 51 51 45 47 53 49 39 27 20 27 29 29 44 46 44 61 55 42 67 69 42 60 79 51 31 38 50 68 68 47 38 39 33 27 31 43 55 60 58 57 71
90 88 88 82 73 64 53 40 32 30 35 54 84 102 100 99 102 99 100 101 94 88 91 90 87 88 83 79 84 86 84 85 84 87 94 89 75 71 77 87 96 91 71 54 53 52 47 48 50 49 47 40 29 18 18 27 27 24 37 44 47 64 59 43 60 65 51 72 82 48 34 54 68 80 83 66 50 47 44 40 40 43 47 55 65 72 81
95 91 89 89 85 73 59 49 37 28 29 44 73 99 102 98 102 101 98 102 98 91 95 93 85 82 79 76 80 80 78 79 75 76 83 85 82 76 71 77 81 71 57 49 51 54 49 53 62 58 47 40 29 21 23 26 26 25 28 39 54 63 57 49 58 64 59 64 69 58 52 60 70 72 67 60 49 42 41 39 38 43 46 49 63 77 82
97 95 90 88 90 83 72 62 46 28 22 36 66 96 103 98 101 101 99 102 97 92 98 95 81 76 78 76 75 73 73 74 72 72 72 74 81 76 63 63 62 54 52 50 48 54 56 60 71 70 63 54 34 26 31 26 23 32 32 35 49 54 54 53 51 58 65 61 66 74 63 52 59 57 45 42 38 39 50 46 36 48 57 46 49 72 81
95 96 93 90 90 87 81 74 55 27 14 29 62 93 102 99 99 101 99 100 100 97 97 89 79 81 83 77 74 74 77 81 82 77 70 66 69 66 56 55 54 46 46 47 50 62 63 59 66 67 64 58 39 31 36 26 20 34 41 40 44 45 49 56 51 54 71 80 78 71 56 53 62 60 54 53 45 50 67 57 36 47 63 51 40 55 71
88 90 92 92 90 86 85 82 64 30 6 17 54 89 103 99 98 101 99 99 103 96 80 69 73 83 83 75 73 74 78 88 93 87 77 66 58 56 54 51 48 44 44 48 58 70 68 57 55 55 52 51 43 35 35 30 23 30 38 42 46 47 53 64 65 57 59 70 71 59 52 58 63 62 62 52 39 45 55 47 41 52 59 55 46 42 51
83 84 86 89 88 86 86 85 76 46 12 5 34 74 97 97 97 102 99 99 105 92 67 63 76 85 84 79 77 74 72 78 87 90 88 76 60 58 58 51 45 43 45 59 73 77 73 66 62 61 58 50 42 35 34 33 27 26 32 37 43 50 52 55 61 55 46 49 51 49 53 54 52 62 67 46 29 34 37 40 59 66 53 51 54 41 41
79 80 81 83 84 85 86 85 83 68 33 6 14 51 83 89 88 97 97 96 105 92 61 58 75 80 79 79 77 74 70 71 79 87 90 81 68 66 66 61 59 53 49 67 83 79 74 74 67 64 62 54 47 44 41 35 32 35 39 38 40 46 46 50 57 52 46 46 43 46 59 60 52 57 56 35 24 35 47 58 68 62 48 50 52 40 37
74 75 77 80 80 83 87 84 84 83 60 24 8 29 64 73 67 78 91 96 106 92 50 38 59 68 67 72 72 68 68 72 77 82 86 79 66 61 63 64 67 68 68 77 83 77 74 79 76 70 72 73 64 52 45 41 39 40 39 38 44 45 40 49 58 50 49 60 57 52 58 56 50 48 42 34 38 52 65 65 55 49 49 49 44 35 34
74 72 73 78 78 81 85 85 84 87 79 54 22 15 40 55 52 67 89 97 103 92 50 33 52 60 56 64 70 69 72 75 73 75 79 74 63 65 77 80 75 79 84 84 83 79 78 83 85 78 80 85 75 60 62 63 53 43 38 42 56 55 44 52 61 54 53 57 53 55 61 58 55 54 47 49 59 63 61 55 49 52 55 48 42 37 32
77 73 71 75 78 79 82 84 85 86 85 77 50 22 22 35 41 59 84 98 107 99 60 35 42 45 43 52 58 64 76 76 69 70 74 68 65 76 89 90 84 87 91 88 85 83 81 85 88 82 81 86 78 69 77 75 58 49 51 53 56 52 47 56 61 57 57 52 43 54 70 68 63 60 55 57 59 54 51 53 54 55 53 50 49 44 36
80 77 73 74 76 76 77 80 84 86 86 84 70 41 19 16 26 46 64 76 87 81 50 30 33 35 37 46 51 57 66 61 52 59 68 66 67 74 77 77 80 83 83 84 87 85 83 85 85 83 88 90 83 80 83 76 66 64 61 59 57 52 54 63 60 55 62 66 61 63 65 60 56 55 55 57 55 51 52 55 56 55 52 50 50 48 47
82 81 77 73 73 74 75 76 80 86 87 86 82 63 29 8 16 33 38 43 55 52 33 30 41 40 34 38 43 45 47 45 43 50 59 63 66 69 67 66 72 74 72 76 83 84 87 89 85 85 92 89 83 88 87 76 76 76 65 61 65 61 62 66 60 55 61 65 66 64 55 49 49 50 49 50 51 51 51 49 52 56 54 51 49 49 51
78 83 81 75 72 72 73 75 78 81 84 85 84 71 40 14 16 26 26 35 58 66 53 43 43 41 38 36 35 32 30 35 42 44 46 53 64 69 64 57 60 69 68 68 74 77 80 85 84 85 90 85 83 91 84 70 74 79 73 71 68 58 58 61 59 64 70 67 65 65 56 47 47 47 46 46 45 43 41 41 48 53 54 54 54 51 50
74 81 81 76 73 71 72 77 79 78 78 76 71 59 34 13 13 21 27 43 70 88 89 73 48 38 43 40 29 27 30 34 39 38 36 41 49 55 54 48 51 62 63 63 70 72 71 76 80 83 85 81 82 89 81 67 70 78 80 80 67 52 54 61 66 78 82 70 64 65 60 53 51 49 48 46 45 44 43 44 48 51 53 55 55 53 52
74 78 79 77 74 71 71 76 81 78 70 63 55 41 20 6 8 14 26 53 81 96 104 97 64 40 42 39 24 24 33 34 31 31 31 35 40 43 43 44 49 57 59 60 65 68 70 76 81 85 84 77 77 84 78 66 69 77 81 79 70 59 59 62 66 75 75 65 61 61 61 59 55 52 51 50 49 50 50 49 50 51 54 56 55 56 57
76 77 77 76 76 74 70 73 81 78 67 61 51 31 13 10 15 18 29 59 88 97 100 102 79 49 41 39 27 23 28 27 26 28 30 33 37 39 41 44 48 53 57 61 65 70 73 73 73 77 80 72 68 74 73 67 71 80 82 78 70 67 70 72 71 73 73 70 65 62 64 68 62 54 53 52 49 50 50 50 52 53 54 57 57 57 58
76 77 75 75 77 74 69 73 80 75 68 67 52 29 29 42 45 47 59 76 89 96 99 100 93 75 56 39 25 21 24 25 26 29 31 31 34 37 41 43 43 45 51 59 67 73 74 69 65 66 67 62 62 68 68 63 65 73 78 77 70 65 70 77 80 78 76 71 63 58 62 67 62 56 55 54 51 51 51 52 56 55 54 56 57 57 57
71 72 71 73 76 74 68 72 79 75 73 72 51 32 52 83 79 70 83 96 97 99 101 100 100 93 71 43 25 21 24 27 29 30 30 30 31 34 39 42 40 39 44 52 62 70 71 62 53 52 54 55 62 70 68 62 68 76 72 66 62 58 56 61 66 68 65 59 55 53 56 59 58 56 56 55 54 53 53 54 56 56 56 56 55 54 56
64 65 68 72 75 73 67 68 77 77 74 75 58 31 42 81 94 86 91 102 96 86 87 96 97 83 62 45 34 26 23 25 29 30 29 29 29 30 36 40 38 35 40 47 53 58 60 51 42 45 51 50 54 66 67 65 78 86 69 52 52 54 51 50 53 56 58 56 55 55 55 57 58 57 55 56 57 54 55 57 56 55 57 57 55 54 54
58 61 68 73 74 70 63 67 78 77 72 78 78 53 42 68 98 102 98 95 78 55 55 73 78 64 52 45 37 29 25 24 25 28 28 28 29 29 31 33 33 33 38 45 46 47 50 47 41 45 51 47 48 61 65 64 75 82 66 50 50 51 50 51 51 51 54 54 53 55 58 59 59 57 56 56 54 51 52 58 59 57 56 56 56 56 55
56 58 64 70 70 63 60 67 74 72 70 74 71 53 34 34 47 57 59 56 46 37 45 67 78 75 68 53 34 25 26 25 24 28 28 25 25 27 26 27 30 31 32 37 40 40 39 38 38 41 44 44 50 58 62 66 76 76 61 50 50 49 47 50 52 52 55 54 52 57 64 63 59 58 58 56 55 53 53 56 59 59 57 58 58 57 56
58 57 58 63 63 57 60 68 69 65 64 55 40 38 44 40 35 41 50 48 38 34 47 74 94 94 79 55 33 28 32 33 30 29 28 26 26 27 26 25 27 30 33 35 36 33 32 36 41 42 43 49 54 57 62 68 68 59 48 45 47 48 48 48 50 52 53 51 50 55 60 60 58 58 59 57 55 54 52 52 57 58 57 58 58 57 57
60 57 56 61 61 57 59 62 58 55 53 43 34 49 76 82 73 75 82 76 60 49 56 78 96 94 77 59 44 34 35 39 37 33 32 29 26 26 29 30 29 32 35 33 31 33 37 40 42 45 53 57 51 51 64 69 54 42 45 48 44 45 49 49 49 50 47 45 48 54 57 57 56 56 56 53 50 51 53 54 56 58 56 56 57 57 58
58 60 63 64 60 58 61 63 61 61 63 60 57 64 79 87 88 92 96 91 80 71 69 77 84 83 78 74 65 49 39 40 39 35 31 29 27 27 29 31 34 36 34 32 35 40 39 36 39 51 62 61 54 59 73 71 49 38 47 52 44 44 50 50 47 48 46 43 45 51 54 54 54 54 55 51 48 51 56 56 55 56 57 57 57 57 58
60 69 73 68 62 62 65 69 74 77 77 77 78 78 81 86 89 93 96 95 92 88 82 80 84 84 79 79 74 58 45 42 39 33 28 27 30 30 25 29 42 45 34 33 44 47 37 32 39 50 54 58 63 66 59 46 38 38 45 49 45 42 45 47 46 48 49 43 39 42 45 48 52 55 56 52 48 51 55 57 56 57 57 57 58 58 57
69 78 78 71 67 67 68 76 86 90 87 86 84 80 78 79 82 85 90 92 94 94 90 91 95 88 77 75 72 57 48 46 42 36 34 30 27 25 23 29 44 45 33 36 47 43 34 36 44 50 54 57 56 50 37 29 34 41 41 43 44 42 41 44 47 48 49 45 41 43 45 47 50 54 55 53 50 50 53 56 58 57 56 56 56 57 56
78 84 82 78 78 77 76 82 88 87 83 82 78 70 67 72 78 85 92 97 98 96 95 98 96 81 68 68 63 49 46 48 44 43 45 38 29 28 25 24 31 35 33 40 42 30 30 43 46 48 58 54 34 25 31 34 36 39 40 41 43 41 40 45 49 48 47 47 46 47 48 49 52 55 56 55 53 52 53 55 55 56 56 56 56 59 60
87 88 84 84 87 85 81 80 80 75 68 67 67 66 68 76 83 87 92 97 99 98 99 102 96 80 69 66 56 39 34 41 49 57 57 42 32 35 32 25 26 27 29 39 39 28 35 50 41 35 57 65 38 20 26 31 29 31 36 38 41 42 43 48 51 48 45 46 48 49 49 49 50 51 52 54 55 54 54 55 55 54 55 56 57 59 60
90 90 88 90 91 86 77 71 69 64 54 52 61 68 74 81 84 81 83 90 95 95 95 95 89 78 68 63 56 41 29 33 47 59 56 42 34 33 30 28 28 25 28 42 45 35 39 48 35 30 57 73 49 24 23 26 22 20 24 32 42 49 48 48 50 47 45 46 48 48 47 47 47 46 47 51 54 54 54 55 56 55 55 56 57 58 59
91 92 95 98 94 83 72 63 60 58 53 55 68 78 82 82 74 64 66 79 84 79 75 76 81 81 72 63 58 49 36 31 36 40 43 44 38 30 32 34 28 23 31 43 43 37 37 38 33 40 58 59 38 24 26 28 25 25 30 39 46 48 47 47 48 46 45 46 46 44 44 45 45 45 46 49 52 53 54 55 56 57 56 56 57 59 61
96 95 99 101 91 78 69 64 64 69 73 75 79 81 79 76 70 62 63 69 65 57 57 62 68 68 63 56 54 50 41 35 33 33 41 47 38 30 38 41 29 26 40 45 37 34 32 26 29 46 53 41 30 30 34 35 38 42 43 44 45 46 47 48 47 45 44 44 44 44 45 45 45 45 47 48 51 53 55 55 56 56 56 56 59 64 68
97 98 100 97 83 73 74 75 72 76 83 87 89 88 82 74 69 65 62 58 48 41 43 48 48 49 49 50 52 51 45 39 36 35 40 43 37 30 33 34 31 37 45 40 32 32 32 32 42 53 46 34 34 38 38 41 47 48 45 44 45 46 46 45 44 45 45 44 45 46 46 46 46 47 48 49 51 54 57 59 60 61 61 60 61 67 73
99 97 96 90 78 75 85 86 74 73 84 89 89 91 90 84 76 69 64 59 51 41 39 43 49 57 60 56 53 51 46 40 39 39 36 35 35 32 30 39 49 48 37 28 32 38 39 42 49 47 38 37 42 41 39 44 48 46 45 47 46 44 45 45 44 45 45 45 47 47 46 47 49 51 51 52 53 55 58 61 63 65 67 67 66 68 73
101 94 90 89 84 81 87 84 70 69 80 80 73 75 81 81 77 70 63 56 48 43 42 45 50 58 65 63 60 59 50 37 37 43 42 38 38 36 35 46 56 46 30 30 36 35 34 42 46 40 38 44 44 39 41 49 48 44 45 48 46 45 47 47 45 45 46 46 47 47 47 48 51 54 55 57 58 59 61 63 63 64 68 70 69 70 71
102 89 84 91 91 83 84 87 83 77 75 69 64 68 72 70 67 64 60 55 52 52 53 51 50 58 67 68 67 69 59 42 37 42 42 37 38 37 33 34 36 33 32 36 35 33 42 55 54 45 42 44 41 40 46 50 46 43 45 47 47 47 47 47 47 48 47 46 47 48 49 51 54 56 58 60 61 63 64 64 64 64 66 68 69 70 70
100 88 85 94 95 86 83 88 86 77 68 64 65 70 72 70 68 66 63 63 64 66 65 62 62 67 69 66 68 76 71 53 43 41 36 33 37 39 33 30 34 35 33 30 35 49 61 55 41 38 42 42 40 45 50 49 46 46 45 46 48 49 49 50 51 50 49 48 49 51 52 54 57 58 58 60 63 65 65 64 65 67 67 69 71 73 73
95 90 89 92 91 85 83 81 77 70 66 65 66 67 67 69 70 67 63 65 70 75 76 74 72 73 73 73 79 86 80 62 50 44 37 32 34 37 35 36 41 41 39 44 61 79 75 50 32 35 40 39 41 49 51 48 47 46 44 45 47 49 49 49 49 49 50 52 52 53 56 58 59 61 62 63 66 67 66 65 67 69 70 72 75 75 74
93 92 93 92 89 84 78 75 76 76 70 65 66 68 66 65 63 60 62 70 77 78 76 72 69 71 75 76 79 83 79 67 55 47 38 32 34 39 40 38 35 38 52 70 79 69 48 31 30 35 35 35 43 50 49 48 50 49 47 47 49 49 49 48 47 47 50 53 54 56 56 54 55 58 60 62 66 68 67 65 66 68 70 73 75 74 73
95 94 95 96 94 88 78 76 84 88 80 71 72 73 69 66 62 58 61 71 76 72 69 67 66 68 72 75 79 84 80 68 56 46 38 36 39 42 39 36 41 53 66 71 58 34 16 17 29 35 35 38 44 45 44 48 52 51 50 51 51 50 51 51 50 48 49 52 56 57 53 50 51 53 54 58 64 66 63 62 65 70 73 74 73 72 73
97 97 94 88 87 84 79 80 89 92 84 76 74 71 68 67 63 58 62 72 77 76 75 71 65 67 76 84 86 83 74 63 56 52 46 44 47 45 38 40 56 69 65 47 29 18 16 22 29 33 35 39 40 40 43 49 51 51 51 52 52 50 52 53 53 51 50 52 54 55 54 54 55 55 56 61 65 63 60 62 66 71 76 75 72 71 72
95 95 90 83 79 79 78 80 83 82 79 75 73 71 70 67 61 58 66 77 81 80 77 70 63 67 79 83 77 72 69 63 56 52 49 48 51 50 48 50 59 61 51 37 30 27 26 26 28 32 35 38 38 39 43 47 49 50 52 53 52 53 53 51 50 52 53 51 51 53 56 57 58 59 61 63 61 58 59 62 64 67 73 75 74 73 71
Wind_Speed
23 22 22 23 24 24 25 26 26 26 28 29 29 25 18 11 8 8 9 9 8 4 2 2 3 3 6 8 11 13 8 4 2 3 5 5 5 5 5 5 6 5 5 5 2 2 3 6 7 6 6 11 12 9 16 20 11 1 2 5 7 5 1 3 3 1 1 4 3 3 5 6 5 3 3 3 3 4 6 5 4 3 3 2 3 3 5
23 22 22 24 24 23 24 25 25 24 23 24 26 23 17 13 10 7 7 8 7 3 1 2 2 4 8 8 10 11 7 6 5 3 3 3 4 3 4 5 6 5 5 4 4 3 3 4 6 7 4 7 14 13 14 19 11 2 4 5 4 4 2 3 4 3 2 2 2 1 1 3 4 3 3 4 5 5 3 3 3 2 4 5 6 4 6
23 22 23 24 23 23 23 23 24 23 20 20 21 20 16 12 7 5 8 8 7 4 2 3 3 5 7 9 10 8 5 7 10 8 5 4 4 3 4 6 6 6 5 4 6 6 5 3 5 4 4 3 8 12 14 16 11 11 17 12 2 3 2 3 5 6 7 6 5 4 3 3 3 2 3 4 6 7 4 3 5 1 3 4 6 5 4
23 22 23 23 24 24 22 22 24 22 19 19 19 16 12 8 3 4 8 6 6 6 6 5 3 3 6 6 7 6 4 6 9 10 6 6 7 5 5 6 5 6 5 3 5 5 6 6 4 3 2 1 3 9 15 15 14 16 21 14 3 3 1 2 6 6 6 7 6 5 5 4 4 2 0 3 5 7 5 5 4 4 4 3 4 5 5
23 22 22 23 24 24 23 23 23 22 19 17 17 15 10 6 2 4 7 5 4 5 5 3 2 5 6 3 4 6 7 8 5 6 5 4 6 5 4 4 3 3 5 4 3 4 2 3 3 4 4 3 3 5 10 10 13 13 8 7 1 4 4 1 4 4 6 7 7 4 5 5 5 4 1 5 4 8 7 5 5 5 5 3 6 5 10
23 22 21 22 23 24 24 23 22 23 20 17 17 15 11 6 3 6 9 5 3 4 7 8 7 8 7 2 3 6 8 8 6 3 4 3 5 4 2 3 5 8 8 3 3 5 5 2 3 4 1 4 4 2 2 2 8 11 3 6 0 5 2 4 1 1 2 2 2 2 6 5 5 6 4 5 5 8 7 5 5 6 6 6 6 7 11
24 24 22 21 22 23 24 24 23 23 19 16 18 17 12 8 5 8 11 9 9 11 15 16 10 5 6 3 2 5 8 9 7 4 2 2 4 4 4 7 11 14 11 3 1 2 3 3 4 3 6 5 2 2 3 4 2 5 4 4 2 4 2 4 0 3 5 5 3 3 7 5 4 6 6 5 6 8 7 4 5 6 4 6 10 9 8
24 24 23 22 21 22 23 23 23 24 20 16 19 19 13 10 7 11 15 13 12 13 14 13 6 2 3 3 3 4 7 8 7 6 3 3 4 4 4 10 12 11 9 4 2 3 2 0 3 3 7 5 2 4 2 1 1 3 4 1 1 3 3 5 2 4 5 6 7 5 6 6 4 5 5 2 5 4 3 4 5 5 0 2 8 9 3
24 25 24 23 21 20 22 23 23 24 23 19 18 17 13 12 12 14 14 9 8 10 11 8 4 2 2 4 6 5 5 7 8 6 3 1 3 3 5 10 10 8 8 6 5 6 3 4 9 7 4 6 6 2 5 5 0 1 4 1 1 3 1 3 4 4 4 5 9 7 5 6 1 5 6 2 5 3 2 3 4 6 4 2 5 7 3
24 25 25 24 22 20 20 21 22 22 23 21 17 14 15 16 17 16 10 5 4 8 9 7 5 4 5 8 9 5 5 7 6 4 3 3 5 7 7 7 6 5 7 8 11 15 15 16 19 18 15 17 16 8 14 15 7 3 3 1 1 2 1 1 4 3 4 5 7 5 6 6 3 6 6 4 3 3 2 1 2 6 8 6 5 6 5
24 25 25 25 24 22 19 20 21 21 21 21 16 13 15 17 18 17 10 4 3 7 6 5 5 4 8 15 12 7 6 8 6 3 2 3 8 13 12 8 5 4 5 10 18 24 26 27 29 28 25 23 18 11 20 19 12 8 5 1 1 2 4 2 2 3 2 6 6 3 5 4 6 6 5 5 5 6 5 1 1 4 5 5 5 4 5
24 24 25 25 25 23 20 19 19 19 19 17 13 10 10 14 16 14 8 4 6 7 5 6 7 7 11 17 14 8 8 10 10 6 3 5 11 15 11 5 3 5 10 15 23 25 23 22 20 20 19 13 6 9 14 12 11 11 9 5 2 3 4 2 1 4 1 4 5 5 4 6 6 6 4 3 4 8 10 5 4 2 4 6 7 7 9
24 23 24 25 25 24 22 20 17 17 17 15 11 7 7 11 13 11 10 5 4 5 5 11 16 15 15 17 13 12 13 12 13 10 4 5 10 14 12 5 5 13 22 25 25 17 8 6 5 5 6 5 5 6 7 8 8 9 7 5 4 5 3 1 2 3 1 2 4 4 5 5 6 7 5 2 1 5 9 8 8 6 3 3 8 10 10
23 23 23 24 25 24 23 21 18 16 16 14 11 6 6 9 11 12 12 5 4 9 10 9 12 14 16 17 15 13 14 13 12 11 9 9 9 12 17 17 17 24 26 23 17 7 3 3 4 4 5 6 5 4 1 3 4 8 8 2 3 7 4 2 3 2 2 3 1 1 1 3 4 4 2 2 2 3 6 5 3 6 6 2 6 9 9
20 22 22 23 24 24 23 23 20 17 15 14 9 4 4 6 8 10 11 7 6 10 8 4 8 14 15 16 15 11 8 8 9 8 8 10 11 14 21 25 23 22 16 8 5 4 3 3 4 3 4 3 1 2 2 1 0 5 8 4 4 7 4 2 2 1 1 4 2 2 3 1 4 5 6 5 4 6 8 6 2 6 8 6 2 9 10
21 21 22 22 23 24 23 23 22 19 16 14 9 4 2 4 5 7 9 8 4 6 9 9 13 16 14 15 15 10 5 5 6 6 5 8 13 20 27 26 20 19 15 6 3 4 4 3 2 1 2 1 2 2 2 1 2 3 5 7 8 8 4 5 4 2 1 4 3 1 2 2 5 7 8 7 5 7 7 6 1 7 9 9 3 7 10
22 22 22 21 23 23 22 22 22 20 19 16 10 4 2 4 7 7 8 6 6 12 14 10 12 14 10 9 11 10 9 8 5 3 5 7 11 19 27 26 20 21 18 8 2 4 5 2 2 2 2 3 1 1 2 1 2 2 4 6 7 6 4 4 4 1 1 2 2 1 2 2 4 6 8 7 7 8 7 2 5 7 8 9 5 4 11
23 23 23 22 22 23 22 22 22 21 20 19 14 5 2 3 7 8 8 7 7 12 12 9 13 16 9 6 11 13 12 10 5 4 5 6 8 15 20 17 15 17 16 8 2 4 5 2 2 2 3 5 2 2 2 1 2 2 0 3 3 3 3 3 3 2 1 2 2 1 2 3 3 5 7 5 5 8 5 5 7 7 7 7 7 2 11
23 24 24 23 22 22 21 21 22 21 20 20 17 7 1 2 7 7 9 8 4 12 20 20 17 15 10 10 17 19 16 12 8 5 4 3 12 20 14 5 8 12 9 5 3 3 3 3 1 1 1 4 3 2 2 1 1 2 3 4 2 1 1 2 3 3 1 2 3 0 3 3 2 3 3 2 5 3 3 5 4 5 5 5 7 5 7
24 25 24 24 24 23 21 21 21 20 19 21 20 12 1 1 6 7 8 9 9 20 27 19 12 15 20 20 22 22 20 16 10 5 3 6 16 20 9 3 8 11 6 4 4 2 2 2 2 1 1 2 2 2 3 3 3 1 2 3 2 3 2 1 2 3 2 3 3 2 2 3 6 6 4 5 4 5 5 1 1 1 4 7 6 4 3
25 25 25 25 25 23 23 22 20 20 20 19 20 17 6 2 5 5 6 9 12 18 20 17 21 29 29 24 20 18 17 18 17 14 13 15 15 10 2 3 7 5 2 3 2 1 2 2 2 2 1 2 2 2 1 3 4 3 1 2 2 2 2 1 2 2 3 3 1 2 6 5 8 5 2 2 4 4 4 4 5 7 9 8 6 3 3
24 25 25 25 25 24 24 23 20 20 20 19 20 20 13 7 6 5 8 12 15 21 25 29 33 31 21 14 13 12 14 19 22 21 20 19 12 2 1 5 6 3 2 2 1 1 2 2 1 2 1 2 3 1 1 1 2 5 4 3 2 1 2 3 2 1 3 5 4 4 4 4 9 13 10 8 10 11 10 10 11 12 10 7 7 5 4
23 25 25 25 25 25 25 24 21 20 20 20 20 21 19 14 9 8 12 14 17 24 29 27 24 20 14 10 8 12 18 20 19 17 17 17 12 4 3 5 3 3 4 2 1 1 1 0 0 1 1 1 2 2 1 1 0 3 3 2 1 3 2 1 3 1 2 2 1 2 2 6 11 14 13 12 12 11 9 10 12 12 9 6 5 5 3
21 23 24 25 25 25 24 24 23 22 21 21 21 21 21 17 12 13 15 13 14 19 18 16 18 16 12 11 11 13 16 14 12 13 13 11 12 7 4 4 2 2 4 4 3 3 2 1 1 1 0 1 1 1 2 1 1 1 1 3 4 4 5 4 3 2 3 2 3 3 2 5 7 10 11 10 9 7 7 8 8 9 8 6 4 4 3
20 21 23 24 24 25 25 24 23 22 22 23 22 21 21 17 12 13 15 12 11 11 7 12 17 12 8 15 20 15 12 11 10 11 10 10 16 15 9 4 2 1 3 5 6 4 2 1 0 2 1 1 1 0 1 1 1 0 2 0 3 3 6 3 2 3 1 3 3 2 4 8 9 11 12 10 8 6 6 7 7 6 5 4 2 4 3
19 19 21 23 24 25 25 24 24 24 23 24 23 22 21 17 12 12 12 9 10 9 7 9 13 11 14 24 22 11 8 11 12 13 12 13 15 19 16 9 5 5 2 5 6 5 1 1 1 2 1 3 4 3 2 2 2 0 1 3 3 2 4 1 2 3 2 2 1 1 5 9 10 12 12 10 9 8 6 6 6 5 5 4 2 6 6
19 19 20 22 23 24 25 25 24 25 24 24 23 21 19 15 10 11 9 4 5 6 4 7 16 25 31 28 16 8 12 15 14 13 13 13 12 14 18 13 8 8 6 3 5 4 0 1 1 2 2 3 4 3 2 2 0 1 1 3 2 1 0 0 4 4 2 2 2 2 4 3 4 9 11 9 9 7 6 5 4 3 4 5 4 6 7
19 18 19 21 22 24 25 24 24 25 25 25 23 19 15 10 6 5 4 3 4 7 8 14 26 33 30 21 12 11 15 15 13 13 13 12 10 13 19 17 11 8 7 5 2 1 1 1 2 3 2 2 2 2 2 1 1 1 2 3 1 2 3 2 4 4 4 5 4 6 8 5 4 8 9 8 7 7 6 6 4 2 1 2 3 4 5
18 18 19 21 22 23 24 23 24 25 25 25 23 17 9 4 3 3 3 2 2 9 16 20 22 20 19 19 19 16 13 11 11 12 12 11 8 13 19 18 13 9 8 7 4 3 3 4 5 4 2 4 4 2 2 1 1 2 4 3 2 2 2 3 6 5 3 4 6 8 8 8 8 8 7 6 6 6 6 5 3 2 1 1 1 1 1
19 18 18 20 21 23 23 22 24 25 23 23 24 17 6 0 2 5 5 4 3 9 13 11 9 13 23 29 26 20 15 11 8 9 10 8 7 12 15 14 13 11 9 7 5 3 3 4 4 3 4 5 4 1 0 1 1 4 4 3 3 2 3 5 7 6 5 7 8 7 8 10 10 8 6 5 4 4 4 4 2 1 1 2 2 3 2
18 17 18 19 20 22 22 22 23 23 21 19 19 13 5 1 2 5 6 2 7 15 13 8 10 17 24 25 22 21 20 14 8 7 8 8 9 10 12 12 12 11 10 9 7 4 3 3 3 2 3 4 3 2 2 3 1 4 5 6 6 5 6 7 6 6 8 9 8 8 9 10 9 6 6 5 3 2 2 3 2 2 3 4 3 3 3
18 17 17 18 20 21 21 22 23 22 19 19 18 15 11 7 7 9 9 10 14 15 10 6 8 9 9 14 21 22 16 9 6 8 9 9 9 10 11 11 11 10 10 8 6 4 4 5 4 3 4 5 4 1 2 4 2 4 7 9 9 8 9 8 7 8 9 9 7 7 8 8 7 6 5 4 3 2 3 4 4 4 4 5 5 4 4
17 18 17 18 19 20 20 21 22 20 19 20 18 14 9 6 4 6 8 10 12 10 5 3 4 3 5 15 22 17 10 8 8 9 8 8 8 7 8 10 11 9 8 7 5 3 3 4 4 2 3 5 4 1 2 3 5 6 9 11 10 9 8 8 9 10 9 7 5 4 6 8 7 6 5 5 4 4 4 4 5 5 4 4 4 4 4
18 18 17 17 18 20 20 20 19 17 16 15 11 6 3 3 1 2 4 5 6 5 5 4 3 3 5 12 13 8 9 13 12 8 7 7 8 8 7 7 7 6 6 6 5 3 3 3 3 2 2 3 2 1 1 5 7 7 10 11 9 7 8 9 11 11 8 5 3 4 7 8 7 6 5 4 3 4 5 4 5 6 5 4 4 4 5
18 17 17 17 19 20 19 17 15 12 10 8 6 4 3 3 3 4 5 5 5 4 4 5 5 3 4 5 5 6 11 13 11 9 7 7 8 10 9 5 2 3 6 6 4 3 2 2 3 2 2 1 1 1 4 6 6 7 10 12 11 9 10 11 12 10 8 6 5 6 6 6 6 6 5 3 2 3 3 3 2 3 3 3 3 4 6
17 16 16 18 19 18 16 12 9 7 6 6 7 8 8 7 8 10 11 10 8 7 6 4 3 3 1 2 5 8 13 12 11 11 10 6 5 7 7 4 1 4 6 3 1 2 3 5 4 1 2 1 2 5 8 10 9 10 13 15 14 13 12 12 13 13 10 7 6 6 5 4 5 6 6 3 2 2 2 2 1 2 3 3 2 2 4
16 16 17 18 18 16 12 7 6 6 6 7 9 12 13 11 11 12 13 14 13 14 12 6 4 6 6 4 5 8 9 8 9 10 8 6 4 4 5 3 2 3 2 1 1 3 4 6 4 1 2 4 5 5 7 9 11 14 16 16 15 13 13 14 15 15 12 8 6 6 5 4 6 7 7 6 4 3 3 3 2 1 2 2 1 1 1
15 16 16 16 14 11 6 4 6 10 12 12 12 13 12 8 6 6 9 10 11 14 14 9 8 11 10 7 9 12 8 6 9 7 4 4 5 2 1 1 1 2 0 2 4 4 2 2 2 1 4 5 4 4 5 5 9 14 15 16 16 14 14 16 18 16 13 10 9 9 8 7 8 10 11 9 7 5 6 5 3 1 1 1 1 2 2
13 15 14 13 12 10 8 10 15 19 20 17 13 9 6 4 2 3 6 7 6 9 11 10 12 16 14 8 13 21 18 7 5 4 3 4 5 2 0 1 1 2 1 2 4 3 2 1 1 1 3 5 4 7 10 11 13 13 12 13 15 15 15 18 17 14 11 9 9 10 10 8 9 10 11 11 10 9 8 6 5 4 3 2 2 3 2
12 13 13 13 14 15 16 17 18 18 15 10 6 5 4 4 4 4 5 4 3 5 9 9 12 20 22 17 13 16 16 11 7 5 4 5 5 2 1 0 1 2 1 3 3 3 3 0 1 1 3 4 3 9 12 12 11 9 8 11 15 16 17 16 13 10 9 9 8 8 8 7 7 8 9 11 12 11 9 7 5 4 3 2 2 2 2
11 11 11 14 18 20 20 17 13 9 6 4 4 3 3 3 5 5 3 2 2 4 9 9 7 10 19 23 19 14 15 16 15 10 7 5 4 2 0 1 1 2 0 3 3 3 3 1 1 2 4 5 6 11 12 10 8 7 8 11 15 17 16 14 12 11 12 12 10 8 8 8 8 8 8 10 11 10 9 7 5 3 2 2 3 3 3
11 11 12 16 20 19 16 11 5 4 4 3 2 2 1 2 4 4 3 3 3 3 7 10 7 6 12 19 20 17 14 13 13 10 6 4 4 4 2 0 1 1 2 4 1 3 2 0 1 4 5 7 11 13 12 11 11 12 13 14 15 15 14 13 12 11 11 12 12 10 9 8 8 7 7 9 10 9 8 6 4 3 3 4 4 4 3
11 11 12 15 15 12 8 4 3 3 2 0 0 1 2 2 2 2 2 4 5 4 4 5 6 8 10 11 13 14 13 11 10 8 4 2 3 2 2 2 0 2 2 1 3 3 1 2 3 5 7 11 15 15 13 13 13 14 14 13 13 13 14 14 12 11 10 10 11 10 8 6 5 5 6 7 8 7 6 4 3 2 3 4 4 4 3
11 9 7 8 7 5 3 1 3 3 1 1 2 2 2 2 2 2 3 3 4 5 9 11 9 7 8 8 7 9 11 10 9 6 3 2 2 1 2 1 3 2 0 1 2 1 3 4 3 5 10 16 17 15 14 15 15 13 12 11 11 11 12 13 12 11 10 8 8 9 7 5 5 7 8 6 6 5 5 4 3 2 1 2 3 3 3
8 5 2 3 3 2 0 1 2 2 2 2 2 2 2 3 2 2 5 9 13 16 20 22 18 13 10 9 8 8 7 6 6 5 2 1 1 0 1 3 2 1 1 0 0 0 1 3 4 5 13 19 18 16 16 16 14 12 12 12 10 9 11 12 12 10 10 9 9 7 5 5 8 11 10 8 6 4 4 3 2 1 0 1 2 3 3
6 4 1 1 3 2 1 1 1 1 1 1 1 2 3 4 6 8 11 16 19 20 22 26 26 19 11 5 5 7 5 2 3 3 1 2 1 2 2 2 1 2 1 1 1 1 3 5 6 10 18 21 19 17 17 15 13 11 11 12 12 11 12 13 12 11 11 11 9 7 6 7 10 10 9 7 6 4 3 2 3 3 1 1 2 2 3
6 3 2 2 3 2 2 3 3 4 5 7 9 11 11 12 14 15 16 18 19 21 25 27 23 15 8 3 3 5 4 1 0 2 1 1 1 1 1 2 1 1 1 1 3 4 4 5 8 13 20 21 19 18 18 16 14 13 12 11 11 12 12 13 12 11 11 10 9 8 8 9 9 8 6 6 6 5 3 3 3 2 0 1 1 3 4
5 3 3 2 1 1 3 3 5 8 13 15 16 16 17 16 15 16 18 19 20 23 27 24 15 6 3 2 2 2 2 2 1 2 2 1 1 1 2 1 1 2 2 4 4 4 4 6 12 18 20 20 19 20 19 17 15 14 14 12 10 10 10 8 6 6 7 8 8 9 9 8 7 6 6 6 6 5 4 4 3 1 1 1 2 3 4
5 4 4 3 2 4 7 8 8 9 14 17 17 15 15 15 16 18 19 20 21 24 26 20 12 5 1 1 1 0 2 2 1 2 2 1 1 1 1 1 1 3 3 3 5 4 5 9 17 22 21 19 20 20 18 17 16 14 13 12 11 10 9 6 5 5 7 7 8 8 7 5 4 4 5 5 5 5 4 2 1 1 1 1 2 3 3
5 5 5 4 4 5 7 8 6 5 8 12 15 16 16 18 20 20 18 19 22 24 20 11 6 3 1 1 1 1 1 2 1 1 1 2 2 2 1 1 2 4 4 3 5 6 8 10 18 24 22 21 21 19 17 17 18 15 12 12 12 10 9 9 9 9 8 8 8 7 5 3 4 6 6 6 6 5 3 1 2 3 2 1 2 3 3
5 5 6 8 9 8 8 7 6 5 7 11 17 19 19 20 22 21 20 21 22 18 10 3 3 2 2 1 1 1 1 2 2 1 2 2 1 2 2 1 4 5 5 6 8 10 10 10 20 26 24 22 22 19 16 17 17 14 13 14 13 11 10 11 11 10 9 9 8 5 4 6 9 9 7 7 6 4 1 2 5 6 5 3 1 2 3
5 5 6 8 12 15 14 14 14 14 15 17 21 22 21 20 21 22 22 20 15 10 7 6 4 0 1 1 1 0 1 2 2 0 0 1 1 2 1 3 5 4 6 7 5 4 6 13 21 25 24 23 20 18 17 17 15 14 15 16 14 12 12 12 10 9 9 9 8 5 4 6 9 9 8 7 4 1 1 4 7 6 5 4 2 1 2
Wind_Direction
351 353 353 352 352 356 358 359 359 353 349 352 356 356 355 343 316 314 322 312 297 285 236 221 196 220 263 264 268 273 265 245 262 294 274 228 188 216 235 230 230 220 220 227 221 208 238 248 222 194 194 202 218 220 182 192 227 237 172 232 197 184 153 150 197 249 261 304 349 117 151 143 150 202 201 152 150 152 149 170 186 165 175 142 109 182 261
353 355 354 352 353 356 360 2 3 358 351 348 348 350 347 328 313 316 317 302 289 286 279 272 263 274 279 280 286 279 251 228 234 238 258 225 179 204 228 218 217 219 224 218 213 209 217 283 258 206 183 197 207 204 178 188 209 202 216 229 163 177 223 126 132 120 138 278 324 352 129 135 165 218 218 188 157 144 150 140 122 179 214 154 130 192 251
355 356 354 353 354 356 0 5 7 3 356 350 348 348 344 331 318 323 317 289 257 244 261 274 286 304 301 303 308 300 260 240 232 221 240 243 214 227 243 235 238 246 249 236 241 235 194 233 282 220 172 164 183 188 191 196 200 221 240 247 173 167 217 110 127 149 168 189 201 208 193 172 186 194 216 207 153 147 173 132 112 209 238 154 146 191 254
355 356 355 354 354 355 1 6 8 8 3 357 356 358 352 344 336 330 327 298 246 249 272 270 258 296 314 312 311 316 318 290 247 221 235 251 233 240 254 254 262 267 274 268 256 247 191 197 282 305 206 124 129 181 196 202 202 213 235 248 191 120 354 104 131 150 174 189 211 209 156 151 182 144 201 244 159 133 120 112 141 189 180 180 210 174 139
354 356 356 355 354 355 359 4 9 12 10 3 5 13 9 358 347 335 336 316 263 266 276 260 233 282 304 315 307 308 312 319 290 211 217 268 261 255 248 252 277 291 304 311 278 294 293 210 273 289 227 140 92 186 193 202 199 186 216 267 177 88 342 306 133 157 190 193 219 215 126 130 159 135 228 257 164 115 105 139 180 154 134 205 245 165 141
354 355 357 355 355 355 357 3 9 13 15 9 12 25 29 13 325 323 339 327 294 315 305 298 295 291 294 277 277 303 312 327 333 245 235 298 311 317 299 286 323 328 319 309 266 307 341 348 302 304 314 84 65 27 8 263 197 157 130 313 46 104 299 265 191 284 260 200 238 177 123 129 134 132 186 228 160 128 128 173 183 137 143 203 207 172 161
356 356 356 356 356 356 356 360 4 12 20 15 20 33 29 8 326 318 337 323 292 300 305 304 302 295 307 307 267 303 320 326 328 311 305 334 339 8 357 323 337 337 323 308 207 306 0 353 313 354 27 31 72 81 16 308 244 121 86 335 23 99 265 261 139 7 336 346 0 98 128 137 130 147 189 193 157 153 144 156 164 143 181 200 166 167 185
357 356 357 357 357 357 357 358 0 8 15 19 33 40 25 10 355 324 325 318 298 301 312 316 309 280 310 315 290 311 324 326 329 321 309 308 327 15 355 322 328 328 318 327 301 253 179 188 290 16 26 356 211 155 149 241 318 90 119 283 358 98 242 262 72 43 325 339 10 44 119 143 168 200 223 158 120 137 135 130 138 127 232 241 146 147 213
357 357 357 358 358 358 358 359 360 4 10 20 36 40 27 19 10 340 322 312 313 324 327 326 321 329 5 334 323 331 321 314 320 310 284 333 10 6 331 323 324 318 323 330 302 284 262 228 245 247 242 245 247 215 142 141 120 173 153 187 330 95 218 288 55 55 301 343 11 10 83 101 157 244 247 211 116 125 183 177 166 149 134 76 110 140 190
356 357 357 357 358 0 359 360 1 3 10 18 26 27 18 11 6 355 335 298 315 341 332 326 339 352 350 333 321 303 281 290 301 305 312 40 25 344 320 321 328 326 326 317 302 300 292 276 273 271 259 258 268 238 161 158 173 196 157 154 257 122 97 12 80 82 299 336 357 0 86 87 303 257 229 215 153 132 162 209 183 155 138 130 161 190 194
356 356 356 356 359 0 359 1 2 3 10 17 16 12 12 5 354 347 338 293 316 344 333 333 359 348 328 329 323 305 316 330 335 337 316 321 338 332 318 308 318 304 277 295 309 307 298 292 289 284 274 267 261 199 160 166 177 168 150 90 334 79 77 62 104 113 316 321 340 27 109 151 246 240 200 200 184 145 132 119 187 166 149 142 163 182 162
354 355 355 356 358 359 360 1 0 3 11 18 17 19 19 9 356 346 336 307 317 335 335 318 315 309 317 326 324 319 334 346 343 330 266 277 323 329 311 266 227 266 274 291 307 306 296 291 286 276 269 264 236 143 141 163 174 161 152 146 119 66 67 48 46 102 97 330 19 87 165 216 252 275 270 237 186 135 115 68 19 73 125 119 124 142 159
351 354 355 355 356 357 359 360 358 0 8 15 23 36 26 11 8 354 338 316 294 322 328 305 303 311 326 330 329 323 325 337 348 347 320 297 317 320 312 273 248 298 305 303 305 305 291 294 306 288 295 335 31 69 115 149 159 145 135 135 131 113 95 59 37 82 92 14 66 135 209 255 303 317 315 306 61 101 96 57 16 7 16 114 150 162 168
349 353 355 355 355 356 357 358 358 358 3 14 24 40 34 17 14 0 346 331 283 306 308 299 308 324 333 331 331 329 326 335 354 0 352 332 308 302 315 322 323 323 317 305 306 328 69 24 8 1 344 9 26 357 4 156 151 125 116 112 123 119 107 46 41 64 122 114 118 216 301 334 330 326 301 223 208 153 127 94 5 323 333 356 165 171 171
352 353 355 355 355 356 356 357 359 355 358 13 25 51 52 14 6 359 344 323 303 305 290 269 324 331 328 322 322 329 335 340 348 345 332 318 309 318 331 336 342 345 337 315 323 29 72 35 36 30 352 15 122 288 321 329 318 111 119 124 97 100 113 126 101 7 96 102 61 16 54 347 262 261 269 262 223 177 140 104 12 298 321 348 150 174 181
357 355 356 354 353 355 356 356 358 356 354 5 24 76 77 355 349 351 337 323 307 292 286 296 318 322 317 311 315 327 338 332 335 334 323 323 328 336 343 349 2 10 6 4 31 44 53 52 60 86 280 255 182 268 307 30 355 20 78 85 72 68 82 114 100 13 19 95 90 120 148 228 246 258 279 268 198 155 113 83 324 283 307 331 352 164 178
1 359 358 356 353 355 356 354 355 356 353 355 11 58 81 353 341 340 339 332 294 287 295 314 330 326 318 310 319 336 336 328 339 341 317 319 325 333 342 351 9 19 16 19 65 39 42 52 30 31 278 266 112 127 290 38 90 352 15 52 57 47 46 75 86 34 7 95 94 195 207 244 247 259 272 242 162 107 83 122 245 274 302 320 334 151 166
359 358 358 357 354 353 355 354 353 354 352 352 359 22 113 347 340 334 330 329 300 286 296 319 322 316 313 306 307 313 319 322 328 320 295 286 312 329 335 346 7 16 15 24 64 34 35 38 23 35 293 293 36 98 294 344 131 222 223 81 67 44 44 76 121 130 90 96 101 279 272 265 257 263 263 230 123 78 83 195 230 280 313 336 350 30 155
357 355 355 357 356 353 353 353 352 352 351 351 352 0 152 325 343 340 329 330 292 280 300 314 312 305 312 312 300 301 312 315 304 310 317 307 332 338 338 355 17 6 1 23 53 39 29 11 351 84 337 317 350 22 335 322 199 205 134 112 109 102 47 52 132 150 143 120 118 322 277 259 267 285 309 43 86 111 211 215 227 279 319 18 18 9 151
357 355 352 353 355 354 351 350 351 350 349 348 348 353 34 329 351 351 336 328 295 288 302 318 319 308 311 307 297 297 307 311 307 315 317 306 330 345 2 35 1 355 356 24 33 26 22 345 314 39 47 310 308 343 336 322 313 335 109 126 171 167 141 317 199 180 132 82 69 90 196 275 322 333 355 38 84 187 220 226 121 30 38 58 55 25 158
355 354 353 351 351 353 351 349 349 349 347 346 344 343 340 312 336 330 304 304 292 285 298 314 313 310 307 301 297 294 287 289 298 296 285 295 322 354 63 269 312 333 8 24 10 338 1 336 315 16 23 295 326 26 336 318 326 333 56 96 107 128 136 192 221 186 123 117 118 197 213 278 347 25 111 102 96 131 138 104 76 63 62 64 63 67 177
349 350 352 350 349 351 350 348 348 346 345 344 341 337 332 325 326 303 283 285 274 270 285 300 304 304 302 301 317 322 303 304 312 301 280 280 298 339 176 281 298 286 297 9 38 319 343 354 338 26 25 313 342 1 214 124 339 321 346 54 94 228 213 167 156 138 144 162 195 217 238 339 43 75 94 92 88 94 100 91 66 54 60 63 55 70 151
342 343 346 347 348 348 347 346 347 345 343 342 337 331 330 330 326 311 304 300 290 288 294 298 299 301 303 303 317 326 319 317 322 316 293 273 263 252 260 282 300 297 296 339 26 277 264 204 292 67 59 317 345 340 316 78 77 295 335 13 267 275 309 97 127 105 64 87 169 193 66 33 54 77 84 83 85 82 79 78 65 53 52 61 68 75 97
336 335 338 342 345 346 345 345 345 343 341 340 333 327 328 329 325 318 315 314 316 314 308 300 299 304 310 307 305 313 319 314 312 325 321 275 244 240 256 254 252 301 313 332 335 299 246 239 335 73 89 295 18 14 331 355 298 253 18 340 303 333 10 38 81 71 73 70 307 303 59 47 56 87 93 87 79 65 56 61 60 52 53 67 101 109 79
331 331 332 337 341 344 344 343 342 341 341 338 331 327 329 329 324 319 315 312 317 320 309 301 299 290 289 309 309 307 309 308 306 319 323 282 253 249 256 258 214 223 331 342 331 316 291 251 126 96 142 224 151 149 292 279 259 165 88 251 270 342 5 17 60 46 95 184 248 290 80 77 82 102 107 99 89 80 66 56 50 51 59 70 129 164 167
324 327 329 332 335 339 341 340 338 338 340 337 332 331 332 331 320 304 300 302 300 283 262 282 288 281 300 312 312 305 299 307 309 305 309 309 282 258 253 256 229 214 257 327 318 304 275 163 140 136 182 192 182 194 225 227 242 174 140 220 248 329 340 334 102 66 61 148 188 101 77 65 71 92 103 107 108 104 90 69 51 49 58 60 120 177 181
315 321 325 328 331 334 337 337 336 336 336 334 333 334 333 327 309 289 281 279 284 273 252 275 291 302 311 312 306 305 310 314 314 302 301 321 310 258 240 238 229 218 222 264 309 307 114 102 217 204 191 185 187 206 229 221 162 90 209 265 309 39 271 132 96 98 147 216 221 156 122 84 72 88 98 112 122 116 106 95 74 56 52 52 87 148 169
307 312 318 323 327 330 333 333 332 332 333 331 333 338 337 326 306 275 243 216 259 270 271 288 298 306 313 312 305 313 319 319 317 304 299 314 304 246 229 229 229 225 219 212 246 285 183 178 254 228 178 151 188 262 283 191 86 30 254 260 251 159 181 174 140 151 197 220 194 137 129 137 122 103 102 111 120 120 117 112 104 97 65 33 62 109 143
305 305 311 317 322 326 329 328 327 329 330 328 331 339 341 322 302 273 217 155 324 293 285 290 297 302 305 305 306 314 325 328 315 302 305 310 277 226 218 220 222 230 228 203 186 204 220 235 253 247 194 169 182 252 322 112 154 252 244 229 217 213 211 169 155 152 158 160 144 133 132 133 128 125 122 113 111 120 125 122 118 123 146 284 316 358 117
306 304 307 312 318 323 325 324 324 326 325 324 329 336 338 238 268 255 215 152 41 332 310 297 291 298 301 302 306 316 329 330 313 304 309 298 241 208 206 214 228 244 239 214 204 224 244 255 263 251 216 190 174 175 251 165 218 265 251 223 213 217 192 167 158 151 142 135 128 129 141 140 136 136 132 121 124 134 130 127 132 139 173 220 265 294 286
304 302 304 309 314 320 321 320 321 323 319 317 319 319 308 218 224 233 219 223 327 327 322 299 285 298 300 299 306 321 328 324 313 308 301 271 235 220 216 222 236 244 236 225 228 235 241 248 248 240 230 210 177 141 145 146 243 280 243 207 187 166 154 154 161 168 164 148 132 129 138 144 151 155 139 132 156 191 173 170 163 139 152 184 209 238 257
299 298 302 308 312 316 319 318 318 317 312 304 298 293 292 291 267 255 260 278 295 307 314 300 295 300 297 301 314 325 329 318 291 289 284 260 237 228 223 223 232 240 237 229 223 226 233 227 217 229 235 211 194 137 108 134 198 240 209 188 175 158 148 145 148 157 162 160 152 140 133 142 163 172 159 152 171 211 232 222 207 177 159 163 176 198 226
295 296 302 308 310 313 317 316 313 309 301 296 296 301 314 319 280 257 261 270 282 289 283 284 298 259 269 306 319 334 356 349 315 295 286 268 243 226 223 229 234 233 227 217 209 226 248 222 195 213 229 205 185 90 105 184 230 226 199 188 180 169 163 159 152 153 161 176 189 174 154 152 157 162 167 172 182 206 223 222 222 221 204 181 178 185 199
290 296 304 307 309 314 317 313 308 304 299 297 299 310 345 12 1 274 262 269 287 282 243 237 265 263 291 310 314 329 352 341 323 308 299 275 248 227 217 224 228 217 210 217 218 232 262 237 180 175 224 204 152 83 243 250 254 230 199 190 183 169 162 160 158 160 164 169 174 165 157 154 151 156 166 170 182 210 215 211 222 232 227 219 222 209 201
287 296 306 308 310 316 318 313 306 299 295 297 299 299 310 331 334 312 287 275 272 256 231 232 240 252 308 315 291 308 335 334 319 311 306 275 243 226 208 189 181 201 207 212 211 210 235 213 173 181 236 213 118 179 232 247 248 217 193 185 179 170 160 151 149 153 155 146 135 136 143 152 162 162 155 129 123 181 192 185 201 232 235 238 253 240 224
288 298 305 308 312 319 319 312 302 292 290 298 307 311 309 297 288 288 283 271 254 242 247 258 240 220 230 268 272 306 329 334 333 331 321 290 246 222 201 175 177 213 201 183 177 223 213 192 178 206 272 215 199 230 238 239 231 206 187 182 183 184 180 170 160 155 153 149 140 139 148 170 178 163 146 125 120 141 158 163 179 242 253 252 268 264 240
289 300 305 308 314 320 317 301 280 284 295 298 303 311 307 291 277 272 264 256 249 243 240 245 250 241 241 255 280 303 325 338 344 341 325 298 273 228 195 171 184 205 189 142 240 222 197 180 166 155 238 223 218 234 246 245 226 201 185 181 184 188 190 185 172 161 156 155 153 155 172 207 212 193 178 169 163 160 177 190 208 257 258 252 255 235 211
293 301 307 311 316 319 314 284 277 286 288 285 292 306 303 283 266 256 238 234 241 237 227 224 245 248 243 249 262 263 277 337 352 341 318 317 323 295 208 179 184 173 161 287 241 205 169 145 125 163 244 254 238 200 184 173 176 181 180 181 187 192 192 185 176 167 163 164 166 172 184 199 202 196 190 184 176 169 170 176 178 170 166 150 121 140 153
296 303 307 309 306 299 296 297 297 295 291 284 283 290 282 246 233 229 210 208 221 222 213 216 237 237 226 228 259 259 259 282 340 324 287 305 315 302 142 351 249 134 58 297 240 183 144 335 337 200 265 295 269 202 182 158 150 159 171 182 190 192 184 179 178 178 176 176 176 180 187 193 189 184 184 182 173 162 162 168 166 161 166 161 145 155 173
293 302 307 305 302 303 308 308 302 295 292 282 258 242 234 222 218 206 196 202 216 209 206 219 237 235 228 226 247 263 257 239 230 248 265 274 279 290 52 11 207 116 69 276 238 159 136 295 323 214 253 278 234 180 169 155 149 156 170 180 182 177 168 167 168 167 163 163 165 167 172 176 170 163 169 179 178 171 169 172 169 163 172 187 201 211 224
294 301 304 304 306 310 314 313 302 281 266 241 212 216 221 219 225 225 213 215 234 217 215 217 221 229 229 225 226 243 251 241 238 248 262 262 258 264 12 247 186 101 32 253 225 114 99 90 333 261 242 221 169 153 151 148 150 154 157 164 167 165 161 158 153 148 147 147 147 148 151 156 153 144 150 172 181 179 173 172 173 182 209 245 264 258 254
291 295 297 302 308 313 314 311 288 228 214 207 215 242 232 212 231 238 219 221 252 249 222 214 212 239 244 231 224 230 243 242 235 236 245 252 234 211 198 318 53 90 234 236 158 74 61 79 277 267 236 184 157 151 150 148 147 144 141 143 151 160 164 159 150 149 153 151 145 139 139 144 147 138 141 160 172 173 172 179 194 214 236 263 275 269 264
283 289 297 302 307 314 315 291 226 193 197 212 178 253 266 246 239 243 232 235 243 243 232 240 270 291 284 254 230 230 239 240 232 224 222 243 233 181 90 34 32 199 226 206 84 74 145 197 220 242 212 173 159 157 156 153 150 145 138 134 139 153 166 165 153 146 151 153 149 145 143 142 141 139 148 164 171 167 162 162 170 196 224 245 254 257 271
279 282 292 299 298 306 320 252 185 163 162 257 173 181 252 262 231 230 264 284 291 299 311 319 321 311 298 288 263 243 238 235 232 230 226 234 235 86 75 224 226 217 230 46 68 118 217 221 236 222 187 169 163 164 164 161 157 153 150 147 141 143 155 163 159 152 150 148 147 152 160 165 158 153 155 161 163 160 153 139 126 128 188 225 246 264 285
268 258 262 290 279 266 303 248 205 190 229 240 196 188 241 255 238 254 297 314 317 314 314 317 315 303 292 291 280 260 242 220 209 215 221 202 178 167 201 218 233 41 71 89 12 58 236 269 275 212 178 169 168 168 168 166 165 163 161 158 148 137 143 152 155 153 151 147 143 146 162 172 159 152 149 144 138 140 141 123 85 40 298 237 265 285 293
234 214 182 259 266 251 221 237 261 245 217 237 345 347 317 297 296 304 314 317 314 310 312 313 307 296 282 265 247 251 257 227 188 215 222 105 138 226 215 168 94 45 62 41 293 219 220 254 246 193 173 168 167 168 168 167 165 164 159 150 139 134 139 145 145 141 144 150 152 149 152 157 154 148 142 134 128 123 115 79 38 15 345 243 270 301 310
209 195 180 218 271 276 241 236 260 277 290 313 328 329 323 315 309 309 315 319 317 316 318 316 306 289 271 252 244 260 277 296 229 265 282 114 154 257 9 86 130 211 154 169 233 236 238 248 223 186 171 166 166 168 170 168 166 165 162 153 143 138 139 139 136 136 144 154 155 146 144 149 150 144 136 133 131 121 93 60 43 41 64 251 309 339 339
191 172 189 224 267 237 230 259 292 293 297 308 316 317 317 319 315 314 320 325 327 326 323 315 302 282 275 272 241 253 298 324 305 269 254 188 154 2 29 44 273 246 172 175 206 230 243 224 195 177 169 169 170 170 170 171 170 170 171 170 165 158 153 145 134 138 151 152 146 145 147 144 136 132 133 134 134 125 98 65 51 75 172 305 345 3 4
203 189 209 247 270 248 258 284 306 302 300 306 310 312 317 320 317 319 327 331 330 327 321 306 278 249 258 289 214 271 302 284 245 229 222 182 140 148 146 160 240 255 253 220 202 215 238 212 185 174 170 173 175 174 175 178 177 173 173 175 174 171 175 179 173 163 161 151 140 141 142 131 123 146 160 152 144 138 123 95 76 211 219 304 332 353 11
215 218 226 235 249 268 282 293 297 295 306 314 313 313 316 317 316 321 331 329 324 326 328 314 267 235 50 40 23 354 281 253 255 231 188 184 179 163 136 154 211 222 241 238 220 247 268 228 189 178 176 176 175 176 179 181 179 173 168 167 166 167 173 175 165 157 161 165 159 153 158 184 209 211 201 183 172 163 147 150 200 202 203 251 314 344 14
220 238 243 235 236 252 273 282 278 281 295 301 303 305 306 304 306 314 322 322 322 332 345 330 278 321 32 48 270 293 300 293 296 248 186 208 182 113 99 237 235 239 272 284 270 270 269 220 186 180 178 176 176 178 178 174 172 169 165 165 165 164 166 169 164 156 158 170 175 174 188 201 200 196 187 175 169 165 157 188 196 200 207 224 292 23 48
210 235 260 257 254 259 265 267 269 274 276 279 288 296 297 294 300 312 318 317 319 326 320 292 280 306 101 213 243 23 5 313 304 23 76 330 30 93 148 243 265 300 326 320 292 250 198 176 175 177 177 173 171 172 173 170 166 163 163 167 169 165 161 163 163 157 159 173 184 182 167 169 179 184 180 168 159 157 185 172 170 182 207 225 240 38 64